2000 OH8  

Epoch 2000 Aug. 4.0 TT = JDT 2451760.5                  Nakano

M   0.21201              (2000.0)            P               Q

n   0.26437032     Peri.   23.12598     +0.65019340     +0.75339410

a   2.4043310      Node   287.58062     -0.71218042     +0.55932451

e   0.4958740      Incl.    5.91341     -0.26466506     +0.34576498

P   3.73           H   20.2           G   0.15           U   *

Residuals in seconds of arc 

000707 704  0.7-  0.4-    000731 474  0.3-  0.6-    000801 808 (0.7+  3.3-) 

000707 704  0.3+  0.3+    000731 557  0.6+  0.1+    000801 704  0.0   0.1-  

000707 704  0.8+  0.2+    000731 557  0.5-  0.2+    000801 704  0.5+  0.3+  

000707 704  0.4-  0.1-    000731 557  0.4-  0.2-    000801 704  0.9+  0.1+  

000730 704  0.4-  1.6+    000731 118  0.3+  0.6+    000801 711  0.1-  0.3+  

000730 704  0.1-  0.6+    000731 118  1.0+  0.9+    000801 711  0.0   0.3-  

000730 704  0.1+  1.1+    000731 118  0.2+  0.4-    000801 711  0.0   0.8-  

000730 704  0.7+  1.5+    000731 595  0.1-  0.9-    000801 118  0.2-  0.6-  

000730 046  1.1+  0.1+    000731 106  0.0   0.3+    000801 118  0.6-  0.7-  

000730 046  0.0   1.0-    000731 611  0.6-  0.7-    000802 704  0.1+  0.6+  

000730 046  0.3+  0.1-    000731 595  0.2-  0.6+    000802 704  0.6-  0.2-  

000730 046  0.0   0.6-    000731 611  0.4+  0.2-    000802 704  0.1-  0.1-  

000730 046  1.2+  2.0-    000731 611  0.1-  0.7-    000802 704  0.3+  0.1-  

000730 557  0.9-  0.7-    000731 611  0.1+  0.8-    000802 704  0.3-  0.6+  

000730 046  0.7-  0.0     000731 595  0.4-  0.0     000803 704  0.0   0.4+  

000730 557  0.1+  0.0     000731 587  0.4+  0.8+    000803 704  0.5-  0.6-  

000730 557  0.6-  0.0     000731 106  0.3+  0.3+    000803 704  0.7+  0.1+  

000731 859  0.3-  0.1+    000731 587  0.7+  0.3-    000803 704  0.1+  0.3+  

000731 859  0.9-  0.7-    000731 595  0.6-  0.6-    000803 704  0.5+  0.4+  

000731 658  0.1+  0.1+    000801 739  1.4+  0.1+    000803 360  0.0   0.2-  

000731 658  0.0   0.0     000801 704  0.7-  0.3-    000803 360  0.1+  0.0   

000731 658  0.0   0.1+    000801 808 (0.9+  3.2-)   000803 360  0.0   0.1-  

000731 474  0.7-  0.4-    000801 739  0.5-  1.4+                            

000731 474  0.5+  0.4-    000801 739  1.4-  2.0+                            

  

NAKANO

         **** Don't distribute anyone except personal use only ****

                (C) Copyright 2000 OAA/ComputingSection

write mail from CFAD0::NAKANO on 2000-08-04 23:32:13(JST).

 





–ß‚è‚Ü‚·B